We konden geen weer-waarchuwingen ophalen. Ga rechtstreeks naar de Meteoalarm site : www.meteoalarm.eu en controleer daar .



Onweer radar Meer informatie blitzortung!


Regen radar Meer informatie rain snow radar


Bezoek onze andere website:

Template documentation
and downloads

And another site



15 daagse weersverwachting Ansfelden (AT)

  • Overzicht
  • Per uur
  • 15 dagen
  • Extra
  • Vergelijk
  • Kaarten
  • Dagkaart
  • Meer »
  • Info
  • Statistieken
  • Directe link
    Temp 6h Neerslag Wind  
 06:03     20:11    Daglengte: 14:08 Vandaag
02:00
22°
 
1
08:00
20°
 
1
14:00
32°
 
3
20:00
29°
 
2
 06:04     20:09    Daglengte: 14:05 Morgen
02:00
23°
 
3
08:00
22°
 
3
14:00
27°
 
2
20:00
23°
12.2 mm
3
 06:06     20:07    Daglengte: 14:01 Zaterdag 20 Aug
02:00
19°
17.2 mm
4
08:00
19°
28.1 mm
5
14:00
20°
18.4 mm
5
20:00
19°
37.7 mm
2
Locatie info
Region: Oberösterreich
Latitude: 48.2100°N
Longitude: 14.2908°E
278 masl
Postcode: 4052
Temp/Neerslag /Baro Onweer/Dauwpunt
    Temp Baro 1h Neerslag Dauwpunt Wind UV Bewolking  
 06:03     20:11    Daglengte: 14:08 Vandaag
01:00
22°
1010.2 hPa   15.8°
1
Windvlaag: -0.5 m/s
35%
02:00
22°
1010.1 hPa   16.6°
1
Windvlaag: 0.1 m/s
32%
03:00
21°
1010.1 hPa   16.9°
1
Windvlaag: 0.4 m/s
25%
04:00
20°
1010.3 hPa   17.1°
1
Windvlaag: 1 m/s
19%
05:00
19°
1010.4 hPa   16.2°
1
Windvlaag: 2.8 m/s
31%
06:00
18°
1010.6 hPa   16.1°
1
Windvlaag: 2.7 m/s
12%
07:00
19°
1010.8 hPa   16.2°
1
Windvlaag: 2.4 m/s
23%
08:00
20°
1011.1 hPa   16.0°
1
Windvlaag: 1.8 m/s
34%
09:00
23°
1011.1 hPa   16.7°
1
Windvlaag: 1.1 m/s
49%
10:00
25°
1010.9 hPa   16.4°
1
Windvlaag: -0.6 m/s
41%
11:00
27°
1010.5 hPa   15.8°
2
Windvlaag: 0.4 m/s
55%
12:00
29°
1010.1 hPa   16.1°
2
Windvlaag: 1.3 m/s
20%
13:00
30°
1009.1 hPa   16.2°
3
Windvlaag: 1.9 m/s
53%
14:00
32°
Voelt als: 31.6°
1008.5 hPa   15.4°
3
Windvlaag: 1.4 m/s
40%
15:00
33°
1007.9 hPa   16.0°
3
Windvlaag: 1.7 m/s
78%
16:00
33°
Voelt als: 32.3°
1007.9 hPa
27%
14.8°
3
Windvlaag: 1.8 m/s
80%
17:00
33°
Voelt als: 32.1°
1007.8 hPa
71%
14.6°
4
Windvlaag: 2 m/s
51%
18:00
31°
1007.7 hPa
24%
16.4°
5
Windvlaag: 4.2 m/s
58%
19:00
31°
1007.8 hPa
13%
17.5°
4
Windvlaag: -1.2 m/s
42%
20:00
29°
1008.3 hPa
13%
17.8°
2
Windvlaag: -0.9 m/s
30%
21:00
27°
1008.8 hPa
13%
18.6°
3
Windvlaag: -0 m/s
40%
22:00
25°
1009.1 hPa
13%
18.7°
3
Windvlaag: 0.5 m/s
36%
23:00
24°
1009.5 hPa
13%
18.4°
3
Windvlaag: 2.2 m/s
49%
 06:04     20:09    Daglengte: 14:05 Morgen
00:00
23°
1010.0 hPa
13%
18.2°
3
Windvlaag: 0.6 m/s
44%
01:00
23°
1010.1 hPa
13%
17.1°
3
Windvlaag: -0.8 m/s
45%
02:00
23°
1010.0 hPa
13%
17.4°
3
Windvlaag: 0.5 m/s
18%
03:00
22°
1010.1 hPa
13%
17.0°
3
Windvlaag: 0.6 m/s
38%
04:00
22°
1010.2 hPa
13%
16.8°
2
Windvlaag: 0.6 m/s
48%
05:00
21°
1010.1 hPa
14%
17.5°
2
Windvlaag: 0.7 m/s
48%
06:00
21°
1010.7 hPa
14%
17.4°
3
Windvlaag: 1.9 m/s
67%
07:00
21°
1011.1 hPa
65%
17.3°
3
Windvlaag: -0.4 m/s
66%
08:00
22°
1010.9 hPa
82%
17.1°
3
Windvlaag: -0.8 m/s
84%
09:00
23°
1011.1 hPa
82%
17.1°
3
Windvlaag: -0.2 m/s
74%
10:00
24°
1011.0 hPa
82%
16.0°
3
Windvlaag: 0.2 m/s
75%
11:00
25°
1010.7 hPa
82%
14.6°
3
Windvlaag: 0 m/s
77%
12:00
26°
1010.3 hPa
82%
13.4°
4
Windvlaag: -0.2 m/s
77%
13:00
26°
1010.2 hPa
82%
13.2°
2
Windvlaag: -0 m/s
67% warningclass
14:00
27°
1009.5 hPa
82%
14.4°
2
Windvlaag: -1.5 m/s
78%
15:00
27°
Voelt als: 27.3°
1009.3 hPa
82%
13.5°
2
Windvlaag: -0.8 m/s
69%
16:00
28°
Voelt als: 27.5°
1008.9 hPa
82%
12.2°
2
Windvlaag: 1.8 m/s
82%
17:00
27°
1008.5 hPa 3.2 mm
100%
16.6°
2
Windvlaag: 4.1 m/s
97% warningclass
18:00
25°
1008.8 hPa 2.1 mm
100%
15.5°
3
Windvlaag: 7.2 m/s
92% warningclass
19:00
24°
1009.0 hPa 3.4 mm
100%
15.4°
2
Windvlaag: 3.9 m/s
89%
20:00
23°
1010.2 hPa 3.5 mm
100%
15.7°
3
Windvlaag: -0.1 m/s
99%
21:00
22°
1010.7 hPa 3.3 mm
92%
17.4°
3
Windvlaag: -1.2 m/s
100%
22:00
21°
1011.4 hPa
100%
17.7°
3
Windvlaag: 3.2 m/s
98%
23:00
20°
1011.5 hPa 3.7 mm
100%
17.9°
4
Windvlaag: 3.3 m/s
92%
 06:06     20:07    Daglengte: 14:01 Zaterdag 20 Aug
00:00
19°
1011.9 hPa 4.0 mm
98%
17.0°
4
Windvlaag: 2.6 m/s
100%
01:00
19°
1012.1 hPa 3.6 mm
100%
17.4°
5
Windvlaag: 3.3 m/s
99%
02:00
19°
1012.1 hPa 2.6 mm
100%
16.8°
4
Windvlaag: 2.1 m/s
100%
03:00
19°
1011.7 hPa 4.4 mm
99%
17.2°
4
Windvlaag: 2.2 m/s
100%
04:00
19°
1011.6 hPa 7.3 mm
100%
17.2°
4
Windvlaag: 2.6 m/s
100%
05:00
19°
1011.6 hPa 6.7 mm
100%
17.2°
5
Windvlaag: 2.2 m/s
99%
06:00
19°
1011.9 hPa 4.2 mm
100%
17.2°
4
Windvlaag: 2.6 m/s
99%
07:00
19°
1012.5 hPa 3.0 mm
100%
17.4°
4
Windvlaag: 2.6 m/s
100%
08:00
19°
1013.1 hPa 2.6 mm
100%
17.5°
5
Windvlaag: 3.7 m/s
97%
09:00
19°
1013.3 hPa 2.4 mm
99%
17.6°
5
Windvlaag: 4.5 m/s
100%
10:00
19°
1013.7 hPa 2.7 mm
100%
17.6°
6
Windvlaag: 6.2 m/s
100%
11:00
19°
1014.1 hPa 4.5 mm
97%
17.4°
6
Windvlaag: 5.3 m/s
96%
12:00
20°
1016.5 hPa
51%
18.7°
5
Windvlaag: 8.2 m/s
85%
13:00
20°
1016.5 hPa
96%
19.3°
5
Windvlaag: 9.2 m/s
85%
14:00
20°
1016.4 hPa 8.9 mm
99%
18.4°
5
Windvlaag: 13.3 m/s
86%
15:00
20°
1016.2 hPa 10.8 mm
100%
18.3°
5
Windvlaag: 14.8 m/s
91%
16:00
20°
1016.0 hPa 12.7 mm
100%
18.3°
3
Windvlaag: 11.6 m/s
100%
17:00
20°
1015.9 hPa 14.1 mm
100%
18.6°
2
Windvlaag: 3.5 m/s
93%
18:00
20°
1015.8 hPa
100%
19.0°
2
Windvlaag: 1.5 m/s
63%
19:00
20°
1015.9 hPa
94%
19.2°
3
Windvlaag: 2.7 m/s
69%
20:00
19°
1016.1 hPa
90%
18.3°
2
Windvlaag: 4.3 m/s
100%
21:00
19°
1016.7 hPa
92%
17.1°
2
Windvlaag: 5.5 m/s
100%
22:00
19°
1016.5 hPa 16.0 mm
99%
16.8°
2
Windvlaag: 7.4 m/s
99%
23:00
19°
1016.5 hPa 15.9 mm
98%
16.8°
2
Windvlaag: 5.7 m/s
72%
 06:07     20:05    Daglengte: 13:58 Zondag 21 Aug
00:00
18°
1016.3 hPa
89%
16.5°
3
Windvlaag: 1.2 m/s
56%
Temp/Neerslag /Baro Onweer/Dauwpunt
    Temp Baro Neerslag Dauwpunt Wind Bewolking  
 06:03     20:11    Daglengte: 14:08 Vandaag
02:00
22°
1010.1 hPa   16.6°
1
32%
05:00
19°
1010.4 hPa   16.2°
1
31%
08:00
20°
1011.1 hPa   16.0°
1
34%
11:00
27°
1010.5 hPa   15.8°
2
55%
14:00
32°
Voelt als: 31.6°
1008.5 hPa   15.4°
3
40%
17:00
33°
Voelt als: 32.1°
1007.8 hPa   14.6°
4
51%
20:00
29°
1008.3 hPa   17.8°
2
30%
23:00
24°
1009.5 hPa   18.4°
3
49%
 06:04     20:09    Daglengte: 14:05 Morgen
02:00
23°
1010.0 hPa   17.4°
3
18%
05:00
21°
1010.1 hPa   17.5°
2
48%
08:00
22°
1010.9 hPa   17.1°
3
84%
11:00
25°
1010.7 hPa   14.6°
3
77%
14:00
27°
1009.5 hPa   14.4°
2
78%
17:00
27°
1008.5 hPa 3.2 mm 16.6°
2
97% warningclass
20:00
23°
1010.2 hPa 9.0 mm 15.7°
3
99%
23:00
20°
1011.5 hPa 7.0 mm 17.9°
4
92%
 06:06     20:07    Daglengte: 14:01 Zaterdag 20 Aug
02:00
19°
1012.1 hPa 10.2 mm 16.8°
4
100%
05:00
19°
1011.6 hPa 18.4 mm 17.2°
5
99%
08:00
19°
1013.1 hPa 9.7 mm 17.5°
5
97%
11:00
19°
1014.1 hPa 9.5 mm 17.4°
6
96%
14:00
20°
1016.4 hPa 8.9 mm 18.4°
5
86%
17:00
20°
1015.9 hPa 37.7 mm 18.6°
2
93%
20:00
19°
1016.1 hPa   18.3°
2
100%
23:00
19°
1016.5 hPa 31.9 mm 16.8°
2
72%
 06:07     20:05    Daglengte: 13:58 Zondag 21 Aug
02:00
18°
1016.1 hPa 48.0 mm 15.7°
4
32%
05:00
16°
1016.0 hPa 10.1 mm 14.8°
3
1%
08:00
17°
1016.0 hPa 10.8 mm 15.3°
3
1%
11:00
20°
1015.2 hPa 11.1 mm 15.4°
3
1%
14:00
23°
1013.0 hPa 12.5 mm 15.5°
2
1%
17:00
23°
1012.0 hPa 14.3 mm 16.6°
2
1%
20:00
18°
1013.1 hPa 16.6 mm 15.9°
2
1%
23:00
17°
1014.2 hPa 19.3 mm 15.9°
1
1%
 06:08     20:03    Daglengte: 13:55 Maandag 22 Aug
02:00
16°
1014.7 hPa 25.1 mm 16.1°
2
1%
05:00
16°
1015.0 hPa 26.9 mm 15.6°
2
1%
08:00
17°
1016.3 hPa 28.2 mm 15.3°
2
1%
11:00
20°
1016.8 hPa 29.6 mm 14.2°
2
1%
14:00
22°
1016.1 hPa 30.5 mm 13.8°
1
1%
17:00
21°
1016.0 hPa 31.1 mm 15.3°
1
1%
20:00
17°
1016.5 hPa 31.2 mm 12.4°
1
1%
23:00
14°
1018.1 hPa 31.2 mm 12.1°
1
1%
 06:10     20:01    Daglengte: 13:51 Dinsdag 23 Aug
02:00
13°
1018.6 hPa 31.2 mm 11.2°
0
1%
05:00
13°
1019.0 hPa 31.2 mm 10.8°
0
1%
08:00
15°
1019.8 hPa 31.2 mm 11.9°
0
1%
11:00
19°
1019.5 hPa 31.3 mm 12.1°
2
1%
14:00
22°
1018.9 hPa 31.3 mm 12.1°
2
1%
17:00
23°
1017.7 hPa 31.3 mm 11.5°
1
0%
20:00
19°
1018.6 hPa 31.3 mm 12.5°
1
1%
23:00
16°
1019.0 hPa 31.3 mm 12.2°
1
1%
 06:11     20:00    Daglengte: 13:49 Woensdag 24 Aug
02:00
15°
1019.1 hPa 31.3 mm 12.0°
1
1%
05:00
14°
1018.8 hPa 31.3 mm 11.5°
1
1%
08:00
16°
1019.3 hPa 31.3 mm 12.5°
1
1%
11:00
21°
1018.8 hPa 31.3 mm 13.9°
2
1%
14:00
24°
1017.5 hPa 31.3 mm 15.0°
3
1%
17:00
25°
1016.3 hPa 31.3 mm 15.4°
2
1%
20:00
20°
1016.7 hPa 31.3 mm 16.2°
1
0%
23:00
17°
1018.1 hPa   15.4°
1
0%
 06:13     19:58    Daglengte: 13:45 Donderdag 25 Aug
02:00
16°
1018.3 hPa 62.5 mm 15.2°
1
0%
08:00
18°
1018.6 hPa 62.5 mm 15.7°
1
0%
14:00
27°
1016.5 hPa 62.5 mm 17.0°
2
0%
20:00
23°
1015.3 hPa 62.8 mm 17.8°
1
1%
 06:14     19:56    Daglengte: 13:42 Vrijdag 26 Aug
02:00
19°
1016.8 hPa 64.0 mm 16.5°
1
1%
08:00
20°
1017.0 hPa 64.7 mm 16.8°
1
1%
14:00
29°
1014.7 hPa 64.7 mm 17.5°
3
0%
20:00
22°
1014.2 hPa 65.3 mm 17.9°
2
1%
 06:15     19:54    Daglengte: 13:39 Zaterdag 27 Aug
02:00
18°
1015.0 hPa 68.0 mm 15.7°
1
1%
08:00
19°
1016.0 hPa 68.0 mm 15.8°
1
1%
14:00
29°
1015.1 hPa 68.0 mm 15.8°
1
1%
20:00
22°
1018.8 hPa 0.8 mm 16.3°
1
46%
 06:17     19:52    Daglengte: 13:35 Zondag 28 Aug
02:00
18°
1020.0 hPa 0.8 mm 15.0°
0
52%
08:00
19°
1020.2 hPa 0.3 mm 15.5°
0
49%
14:00
27°
1018.7 hPa 0.4 mm 16.2°
1
46%
20:00
22°
1019.1 hPa 0.6 mm 16.2°
1
47%
 06:18     19:50    Daglengte: 13:32 Maandag 29 Aug
02:00
18°
1020.4 hPa 1.3 mm 15.0°
0
54%
08:00
18°
1020.3 hPa 0.6 mm 15.5°
0
54%
14:00
26°
1018.8 hPa 0.4 mm 16.4°
1
54%
20:00
20°
1019.0 hPa 1.3 mm 16.1°
0
50%
 06:19     19:48    Daglengte: 13:29 Dinsdag 30 Aug
02:00
17°
1020.0 hPa 1.4 mm 14.4°
1
50%
08:00
18°
1019.8 hPa 0.5 mm 15.0°
0
54%
14:00
26°
1018.1 hPa 0.4 mm 16.0°
1
53%
20:00
20°
1018.0 hPa 0.8 mm 15.5°
0
63%
 06:21     19:46    Daglengte: 13:25 Woensdag 31 Aug
02:00
17°
1019.0 hPa 0.1 mm 14.1°
0
65%
08:00
17°
1019.0 hPa 0.5 mm 14.6°
0
57%
14:00
25°
1017.2 hPa 0.7 mm 14.8°
1
53%
20:00
20°
1017.2 hPa 1.2 mm 14.9°
0
53%
 06:22     19:44    Daglengte: 13:22 Donderdag 01 Sep
02:00
16°
1018.3 hPa 1.2 mm 13.3°
0
59%
08:00
17°
1018.6 hPa 0.7 mm 13.3°
0
59%
14:00
24°
1017.5 hPa 0.8 mm 13.8°
1
48%
20:00
19°
1017.9 hPa 0.7 mm 13.5°
0
53%
  CAPE Lifted Index Hail Supercell Tornado SRH 3km CL BTM PRES CL TOP PRES Swiss DWD icon SMHI TS
 06:03     20:11    Daglengte: 14:08 Vandaag
01:00 10 J/kg -1.7 K 0 % 0 % 0 % 0 m²/s² 0 0 -0.86 3
02:00 0 J/kg -1.6 K 0 % 0 % 0 % 0 m²/s² 0 0 -1.24 3
03:00 0 J/kg -0.4 K 0 % 0 % 0 % 0 m²/s² 0 0 0.89 3
04:00 0 J/kg 0.7 K 0 % 0 % 0 % 0 m²/s² 0 0 2.41 2
05:00 0 J/kg 1.3 K 0 % 0 % 0 % 0 m²/s² 0 0 3.13 2
06:00 0 J/kg 1.6 K 0 % 0 % 0 % 0 m²/s² 0 0 4.12 0
07:00 7 J/kg 1.7 K 0 % 0 % 0 % 0 m²/s² 0 0 4.73 3
08:00 0 J/kg 1.4 K 0 % 0 % 0 % 0 m²/s² 0 0 4.61 3
09:00 0 J/kg 0.5 K 0 % 0 % 0 % 0 m²/s² 0 0 3.53 3
10:00 175 J/kg -0.5 K 0 % 0 % 0 % 0 m²/s² 0 0 2.14 3
11:00 343 J/kg -1.4 K 0 % 0 % 0 % 0 m²/s² 0 0 0.85 3
12:00 534 J/kg -2.0 K 0 % 0 % 0 % 0 m²/s² 0 0 -0.08 3
13:00 831 J/kg -2.8 K 0 % 0 % 0 % 0 m²/s² 0 0 -1.03 3
14:00 1183 J/kg -3.9 K 0 % 0 % 0 % 0 m²/s² 0 0 -2.37 3
15:00 1569 J/kg -4.8 K 0 % 0 % 0 % 0 m²/s² 0 0 -2.67 3
16:00 2003 J/kg -5.7 K 0 % 0 % 0 % 0 m²/s² 0 0 -3.96 80
17:00 2196 J/kg -6.9 K 0 % 0 % 0 % 0 m²/s² 0 0 -5.43 3
18:00 2115 J/kg -6.6 K 0 % 0 % 0 % 0 m²/s² 0 0 -5.34 3
19:00 1919 J/kg -5.9 K 0 % 0 % 0 % 0 m²/s² 0 0 -4.43 3
20:00 1811 J/kg -6.2 K 0 % 0 % 0 % 0 m²/s² 0 0 -4.61 3
21:00 1493 J/kg -5.6 K 0 % 0 % 0 % 0 m²/s² 0 0 -3.26 3
22:00 1069 J/kg -3.7 K 0 % 0 % 0 % 0 m²/s² 0 0 -2.83 3
23:00 426 J/kg -2.4 K 0 % 0 % 0 % 0 m²/s² 0 0 -0.93 3
 06:04     20:09    Daglengte: 14:05 Morgen
00:00 195 J/kg -1.8 K 0 % 0 % 0 % 0 m²/s² 0 0 -0.09 3
01:00 97 J/kg -1.5 K 0 % 0 % 0 % 0 m²/s² 0 0 0.63 3
02:00 0 J/kg -1.0 K 0 % 0 % 0 % 0 m²/s² 0 0 1.25 3
03:00 0 J/kg -0.3 K 0 % 0 % 0 % 0 m²/s² 0 0 0.78 3
04:00 0 J/kg -0.4 K 0 % 0 % 0 % 0 m²/s² 0 0 1.16 3
05:00 0 J/kg -1.7 K 0 % 0 % 0 % 0 m²/s² 0 0 -0.56 3
06:00 0 J/kg 1.1 K 0 % 0 % 0 % 0 m²/s² 0 0 2.69 3
07:00 0 J/kg 1.2 K 0 % 0 % 0 % 0 m²/s² 0 0 1.65 3
08:00 0 J/kg 0.4 K 0 % 0 % 0 % 0 m²/s² 0 0 0.76 61
09:00 0 J/kg 1.1 K 0 % 0 % 0 % 0 m²/s² 0 0 2.57 61
10:00 4 J/kg 0.3 K 0 % 0 % 0 % 0 m²/s² 0 0 1.89 3
11:00 0 J/kg -0.4 K 0 % 0 % 0 % 0 m²/s² 0 0 2.36 3
12:00 40 J/kg -0.5 K 0 % 0 % 0 % 0 m²/s² 0 0 2.41 61
13:00 529 J/kg -3.1 K 0 % 0 % 0 % 0 m²/s² 0 0 0.32 95
14:00 1223 J/kg -4.2 K 0 % 0 % 0 % 0 m²/s² 0 0 2.88 3
15:00 1408 J/kg -4.7 K 0 % 0 % 0 % 0 m²/s² 0 0 1.72 80
16:00 1457 J/kg -4.7 K 0 % 0 % 0 % 0 m²/s² 0 0 -1.46 80
17:00 1666 J/kg -6.0 K 0 % 0 % 0 % 0 m²/s² 0 0 -3.27 61
18:00 611 J/kg -5.0 K 0 % 0 % 0 % 0 m²/s² 0 0 -2.48 61
19:00 450 J/kg -3.5 K 0 % 0 % 0 % 0 m²/s² 0 0 -1.22 80
20:00 244 J/kg -3.2 K 0 % 0 % 0 % 0 m²/s² 0 0 -3.2 61
21:00 177 J/kg -2.9 K 0 % 0 % 0 % 0 m²/s² 0 0 -2.51 3
22:00 475 J/kg -3.1 K 0 % 0 % 0 % 0 m²/s² 0 0 -1.75 3
23:00 170 J/kg -3.2 K 0 % 0 % 0 % 0 m²/s² 0 0 -0.98 3
 06:06     20:07    Daglengte: 14:01 Zaterdag 20 Aug
00:00 0 J/kg -3.6 K 0 % 0 % 0 % 0 m²/s² 0 0 -2.58 3
01:00 0 J/kg -3.6 K 0 % 0 % 0 % 0 m²/s² 0 0 -3.12 3
02:00 0 J/kg -3.1 K 0 % 0 % 0 % 0 m²/s² 0 0 -2.62 3
03:00 0 J/kg -2.0 K 0 % 0 % 0 % 0 m²/s² 0 0 -0.56 61
04:00 1 J/kg -1.5 K 0 % 0 % 0 % 0 m²/s² 0 0 0.57 65
05:00 0 J/kg -2.3 K 0 % 0 % 0 % 0 m²/s² 0 0 -0.29 65
06:00 0 J/kg -2.8 K 0 % 0 % 0 % 0 m²/s² 0 0 -0.79 63
07:00 27 J/kg -2.8 K 0 % 0 % 0 % 0 m²/s² 0 0 -0.79 61
08:00 71 J/kg -2.1 K 0 % 0 % 0 % 0 m²/s² 0 0 -0.48 61
09:00 96 J/kg -2.4 K 0 % 0 % 0 % 0 m²/s² 0 0 -1.02 61
10:00 21 J/kg -2.0 K 0 % 0 % 0 % 0 m²/s² 0 0 -0.83 61
11:00 41 J/kg -1.8 K 0 % 0 % 0 % 0 m²/s² 0 0 -1.17 61
12:00 15 J/kg -1.9 K 0 % 0 % 0 % 0 m²/s² 0 0 -1.51 3
13:00 29 J/kg -1.2 K 0 % 0 % 0 % 0 m²/s² 0 0 -1.17 3
14:00 0 J/kg -1.1 K 0 % 0 % 0 % 0 m²/s² 0 0 -1.1 80
15:00 0 J/kg 0.2 K 0 % 0 % 0 % 0 m²/s² 0 0 0.23 3
16:00 1 J/kg 0.9 K 0 % 0 % 0 % 0 m²/s² 0 0 1.17 61
17:00 10 J/kg 0.4 K 0 % 0 % 0 % 0 m²/s² 0 0 0.7 61
18:00 45 J/kg -0.2 K 0 % 0 % 0 % 0 m²/s² 0 0 0.19 3
19:00 107 J/kg -1.4 K 0 % 0 % 0 % 0 m²/s² 0 0 -1.01 3
20:00 88 J/kg -1.8 K 0 % 0 % 0 % 0 m²/s² 0 0 -1.23 3
21:00 142 J/kg -1.9 K 0 % 0 % 0 % 0 m²/s² 0 0 -1.81 3
22:00 52 J/kg -1.2 K 0 % 0 % 0 % 0 m²/s² 0 0 -1.08 61
23:00 163 J/kg -0.7 K 0 % 0 % 0 % 0 m²/s² 0 0 -0.67 61
 06:07     20:05    Daglengte: 13:58 Zondag 21 Aug
00:00 116 J/kg 0.3 K 0 % 0 % 0 % 0 m²/s² 0 0 0.57 3
Temp Baro Wind Neerslag
  EWN Forecast EWN WRFDA DWD ICON FMI HIRLAM MET Norway GFS
 06:03     20:11    Daglengte: 14:08 Vandaag
02:00 21.8° 1010.1 hPa 1.4 m/s 0.0 mm 21.1° 1010.4 hPa 1.6 m/s 0.0 mm 21.4° 1009.8 hPa 1.3 m/s -2.0 mm 21.5° 1012.1 hPa 0.4 m/s 0.0 mm 19.3° 1009.3 hPa 0.8 m/s
05:00 19.3° 1010.4 hPa 1.5 m/s 0.0 mm 18.6° 1010.8 hPa 0.6 m/s 0.0 mm 18.4° 1009.4 hPa 1.5 m/s 0.0 mm 18.9° 1012.8 hPa 0.8 m/s 0.0 mm 17.9° 1010.5 hPa 1.2 m/s
08:00 20.3° 1011.1 hPa 0.8 m/s 0.0 mm 22.4° 1010.9 hPa 1.6 m/s 0.0 mm 19.3° 1011.0 hPa 0.6 m/s 0.0 mm 19.6° 1012.4 hPa 1.0 m/s 0.0 mm 20.3° 1012.1 hPa 1.9 m/s
11:00 27.0° 1010.5 hPa 1.8 m/s 0.0 mm 28.7° 1010.6 hPa 1.6 m/s 0.0 mm 26.8° 1010.3 hPa 1.7 m/s 0.0 mm 26.6° 1011.6 hPa 2.5 m/s 0.0 mm 24.5° 1011.9 hPa 3.0 m/s
14:00 31.8° 1008.5 hPa 3.1 m/s 0.0 mm 32.7° 1008.6 hPa 3.2 m/s 0.0 mm 30.3° 1008.3 hPa 2.9 m/s 0.0 mm 31.9° 1010.0 hPa 4.0 m/s 0.0 mm 27.2° 1010.2 hPa 1.3 m/s
17:00 32.6° 1007.8 hPa 3.6 m/s 0.0 mm 33.3° 1007.3 hPa 4.0 m/s 0.0 mm 26.3° 1008.2 hPa 3.5 m/s 0.2 mm 33.6° 1008.1 hPa 5.8 m/s 0.0 mm 28.0° 1008.4 hPa 0.7 m/s
20:00 29.0° 1008.3 hPa 2.4 m/s 0.0 mm 26.9° 1008.0 hPa 3.0 m/s 3.4 mm 24.5° 1008.7 hPa 2.1 m/s 0.0 mm 29.9° 1009.1 hPa 3.1 m/s 0.0 mm 21.6° 1008.9 hPa 3.9 m/s
23:00 24.3° 1009.5 hPa 3.1 m/s 0.0 mm 23.6° 1008.9 hPa 3.2 m/s 3.6 mm 20.5° 1009.7 hPa 2.3 m/s 0.0 mm 24.7° 1010.4 hPa 2.7 m/s 0.0 mm 18.4° 1010.5 hPa 2.1 m/s
 06:04     20:09    Daglengte: 14:05 Morgen
02:00 22.8° 1010.0 hPa 2.8 m/s 0.0 mm 23.3° 1007.5 hPa 1.9 m/s 3.6 mm 18.9° 1010.3 hPa 1.2 m/s 0.0 mm 23.2° 1010.9 hPa 3.0 m/s 0.0 mm 17.8° 1010.9 hPa 2.2 m/s
05:00 21.2° 1010.1 hPa 2.4 m/s 0.0 mm 18.8° 1007.8 hPa 3.4 m/s 3.6 mm 18.9° 1010.4 hPa 1.6 m/s 0.0 mm 21.6° 1010.9 hPa 2.4 m/s 0.0 mm 17.4° 1010.4 hPa 1.0 m/s
08:00 21.6° 1010.9 hPa 2.9 m/s 0.0 mm 19.1° 1010.2 hPa 2.1 m/s 17.6 mm 19.2° 1012.1 hPa 1.8 m/s 0.2 mm 22.2° 1010.9 hPa 3.1 m/s 0.0 mm 19.3° 1011.1 hPa 2.0 m/s
11:00 25.3° 1010.7 hPa 3.4 m/s 0.0 mm 24.2° 1007.8 hPa 6.1 m/s 19.5 mm 20.5° 1012.1 hPa 1.2 m/s 0.7 mm 29.1° 1010.7 hPa 5.0 m/s 0.0 mm 22.7° 1010.6 hPa 2.1 m/s
14:00 26.9° 1009.5 hPa 2.1 m/s 0.0 mm 29.0° 1006.0 hPa 5.2 m/s 19.5 mm 20.7° 1012.2 hPa 1.5 m/s 3.1 mm 32.8° 1009.5 hPa 4.0 m/s 0.0 mm 24.7° 1009.8 hPa 4.1 m/s
17:00 26.9° 1008.5 hPa 1.9 m/s 3.2 mm 28.6° 1007.2 hPa 4.0 m/s 20.5 mm 20.1° 1011.4 hPa 1.8 m/s 2.9 mm 23.7° 1010.0 hPa 4.2 m/s
20:00 22.5° 1010.2 hPa 2.7 m/s 9.0 mm 23.1° 1009.9 hPa 4.7 m/s 22.9 mm 19.6° 1012.4 hPa 2.7 m/s 1.8 mm 20.4° 1011.4 hPa 4.8 m/s
23:00 19.9° 1011.5 hPa 3.9 m/s 7.0 mm 19.5° 1011.4 hPa 3.1 m/s 27.0 mm 19.2° 1013.2 hPa 4.4 m/s 0.1 mm 17.4° 1013.9 hPa 3.7 m/s
 06:06     20:07    Daglengte: 14:01 Zaterdag 20 Aug
02:00 19.2° 1012.1 hPa 3.7 m/s 10.2 mm 18.8° 1012.2 hPa 2.3 m/s 27.2 mm 18.9° 1013.2 hPa 7.1 m/s 0.3 mm 17.4° 1013.8 hPa 3.9 m/s
05:00 18.7° 1011.6 hPa 4.5 m/s 18.4 mm 18.5° 1011.1 hPa 4.6 m/s 27.7 mm 17.7° 1014.7 hPa 7.0 m/s 27.2 mm 17.4° 1014.2 hPa 5.5 m/s
08:00 18.8° 1013.1 hPa 4.6 m/s 9.7 mm 18.7° 1012.6 hPa 4.8 m/s 28.0 mm 17.8° 1016.7 hPa 4.7 m/s 7.8 mm 17.2° 1015.5 hPa 4.7 m/s
11:00 18.8° 1014.1 hPa 6.1 m/s 9.5 mm 18.8° 1013.5 hPa 5.5 m/s 31.5 mm 19.3° 1017.3 hPa 4.6 m/s 0.7 mm 17.8° 1016.2 hPa 3.8 m/s
14:00 19.6° 1016.4 hPa 5.3 m/s 8.9 mm 17.9° 1013.9 hPa 8.6 m/s 54.6 mm 20.1° 1017.0 hPa 4.5 m/s 0.3 mm 19.0° 1016.6 hPa 3.6 m/s
17:00 19.9° 1015.9 hPa 2.4 m/s 37.7 mm 18.3° 1014.1 hPa 2.2 m/s 112.1 mm 20.3° 1016.4 hPa 2.4 m/s 0.5 mm 21.1° 1015.9 hPa 3.0 m/s
20:00 19.5° 1016.1 hPa 2.2 m/s 0.0 mm 18.2° 1012.9 hPa 2.8 m/s 139.5 mm 19.8° 1016.9 hPa 2.0 m/s 0.1 mm 17.5° 1016.7 hPa 1.5 m/s
23:00 18.7° 1016.5 hPa 2.3 m/s 31.9 mm 18.3° 1014.4 hPa 2.0 m/s 142.5 mm 18.8° 1017.0 hPa 2.3 m/s 0.4 mm 15.7° 1017.1 hPa 1.2 m/s
 06:07     20:05    Daglengte: 13:58 Zondag 21 Aug
02:00 17.9° 1016.1 hPa 3.8 m/s 48.0 mm 17.7° 1013.9 hPa 3.6 m/s 142.7 mm 18.0° 1016.7 hPa 3.8 m/s 0.7 mm 15.1° 1016.4 hPa 2.4 m/s
05:00 15.7° 1016.0 hPa 2.9 m/s 10.1 mm 15.7° 1016.0 hPa 2.9 m/s 10.1 mm
08:00 16.6° 1016.0 hPa 3.0 m/s 10.8 mm 16.6° 1016.0 hPa 3.0 m/s 10.8 mm
11:00 20.1° 1015.2 hPa 3.5 m/s 11.1 mm 20.1° 1015.2 hPa 3.5 m/s 11.1 mm
14:00 23.0° 1013.0 hPa 2.4 m/s 12.5 mm 23.0° 1013.0 hPa 2.4 m/s 12.5 mm
17:00 23.0° 1012.0 hPa 2.4 m/s 14.3 mm 23.0° 1012.0 hPa 2.4 m/s 14.3 mm
20:00 17.9° 1013.1 hPa 1.9 m/s 16.6 mm 17.9° 1013.1 hPa 1.9 m/s 16.6 mm
23:00 16.7° 1014.2 hPa 0.7 m/s 19.3 mm 16.7° 1014.2 hPa 0.7 m/s 19.3 mm
 06:08     20:03    Daglengte: 13:55 Maandag 22 Aug
02:00 16.4° 1014.7 hPa 2.2 m/s 25.1 mm 16.4° 1014.7 hPa 2.2 m/s 25.1 mm
05:00 16.2° 1015.0 hPa 2.0 m/s 26.9 mm 16.2° 1015.0 hPa 2.0 m/s 26.9 mm
08:00 17.5° 1016.3 hPa 1.6 m/s 28.2 mm 17.5° 1016.3 hPa 1.6 m/s 28.2 mm
11:00 20.2° 1016.8 hPa 1.8 m/s 29.6 mm 20.2° 1016.8 hPa 1.8 m/s 29.6 mm
14:00 22.4° 1016.1 hPa 1.2 m/s 30.5 mm 22.4° 1016.1 hPa 1.2 m/s 30.5 mm
17:00 21.4° 1016.0 hPa 0.7 m/s 31.1 mm 21.4° 1016.0 hPa 0.7 m/s 31.1 mm
20:00 17.4° 1016.5 hPa 0.6 m/s 31.2 mm 17.4° 1016.5 hPa 0.6 m/s 31.2 mm
23:00 14.3° 1018.1 hPa 1.3 m/s 31.2 mm 14.3° 1018.1 hPa 1.3 m/s 31.2 mm
 06:10     20:01    Daglengte: 13:51 Dinsdag 23 Aug
02:00 13.3° 1018.6 hPa 0.4 m/s 31.2 mm 13.3° 1018.6 hPa 0.4 m/s 31.2 mm
05:00 12.7° 1019.0 hPa 0.5 m/s 31.2 mm 12.7° 1019.0 hPa 0.5 m/s 31.2 mm
08:00 15.5° 1019.8 hPa 0.1 m/s 31.2 mm 15.5° 1019.8 hPa 0.1 m/s 31.2 mm
11:00 19.2° 1019.5 hPa 1.5 m/s 31.3 mm 19.2° 1019.5 hPa 1.5 m/s 31.3 mm
14:00 21.8° 1018.9 hPa 2.2 m/s 31.3 mm 21.8° 1018.9 hPa 2.2 m/s 31.3 mm
17:00 23.1° 1017.7 hPa 0.6 m/s 31.3 mm 23.1° 1017.7 hPa 0.6 m/s 31.3 mm
20:00 19.2° 1018.6 hPa 1.1 m/s 31.3 mm 19.2° 1018.6 hPa 1.1 m/s 31.3 mm
23:00 16.0° 1019.0 hPa 1.3 m/s 31.3 mm 16.0° 1019.0 hPa 1.3 m/s 31.3 mm
 06:11     20:00    Daglengte: 13:49 Woensdag 24 Aug
02:00 15.4° 1019.1 hPa 0.8 m/s 31.3 mm 15.4° 1019.1 hPa 0.8 m/s 31.3 mm
05:00 14.0° 1018.8 hPa 0.9 m/s 31.3 mm 14.0° 1018.8 hPa 0.9 m/s 31.3 mm
08:00 16.3° 1019.3 hPa 0.8 m/s 31.3 mm 16.3° 1019.3 hPa 0.8 m/s 31.3 mm
11:00 20.6° 1018.8 hPa 2.1 m/s 31.3 mm 20.6° 1018.8 hPa 2.1 m/s 31.3 mm
14:00 23.7° 1017.5 hPa 2.9 m/s 31.3 mm 23.7° 1017.5 hPa 2.9 m/s 31.3 mm
17:00 24.9° 1016.3 hPa 2.3 m/s 31.3 mm 24.9° 1016.3 hPa 2.3 m/s 31.3 mm
20:00 19.9° 1016.7 hPa 0.6 m/s 31.3 mm 19.9° 1016.7 hPa 0.6 m/s 31.3 mm
23:00 17.4° 1018.1 hPa 1.3 m/s 31.3 mm 17.4° 1018.1 hPa 1.3 m/s 31.3 mm
 06:13     19:58    Daglengte: 13:45 Donderdag 25 Aug
02:00 16.3° 1018.3 hPa 1.1 m/s 31.3 mm 16.3° 1018.3 hPa 1.1 m/s 31.3 mm
08:00 18.1° 1018.6 hPa 0.8 m/s 31.3 mm 18.1° 1018.6 hPa 0.8 m/s 31.3 mm
14:00 26.7° 1016.5 hPa 1.9 m/s 31.3 mm 26.7° 1016.5 hPa 1.9 m/s 31.3 mm
20:00 22.8° 1015.3 hPa 1.3 m/s 31.5 mm 22.8° 1015.3 hPa 1.3 m/s 31.5 mm
 06:14     19:56    Daglengte: 13:42 Vrijdag 26 Aug
02:00 18.5° 1016.8 hPa 0.9 m/s 32.3 mm 18.5° 1016.8 hPa 0.9 m/s 32.3 mm
08:00 19.6° 1017.0 hPa 0.9 m/s 32.3 mm 19.6° 1017.0 hPa 0.9 m/s 32.3 mm
14:00 28.5° 1014.7 hPa 2.6 m/s 32.3 mm 28.5° 1014.7 hPa 2.6 m/s 32.3 mm
20:00 22.5° 1014.2 hPa 1.9 m/s 32.9 mm 22.5° 1014.2 hPa 1.9 m/s 32.9 mm
 06:15     19:54    Daglengte: 13:39 Zaterdag 27 Aug
02:00 18.3° 1015.0 hPa 1.0 m/s 34.0 mm 18.3° 1015.0 hPa 1.0 m/s 34.0 mm
08:00 19.3° 1016.0 hPa 0.8 m/s 34.0 mm 19.3° 1016.0 hPa 0.8 m/s 34.0 mm
14:00 28.9° 1015.1 hPa 1.1 m/s 34.0 mm 28.9° 1015.1 hPa 1.1 m/s 34.0 mm
20:00 21.9° 1018.8 hPa 0.9 m/s 0.8 mm
 06:17     19:52    Daglengte: 13:35 Zondag 28 Aug
02:00 17.9° 1020.0 hPa 0.5 m/s 0.8 mm
08:00 18.8° 1020.2 hPa 0.5 m/s 0.3 mm
14:00 27.2° 1018.7 hPa 1.2 m/s 0.4 mm
20:00 21.6° 1019.1 hPa 0.8 m/s 0.6 mm
 06:18     19:50    Daglengte: 13:32 Maandag 29 Aug
02:00 17.7° 1020.4 hPa 0.5 m/s 1.3 mm
08:00 18.5° 1020.3 hPa 0.1 m/s 0.6 mm
14:00 26.4° 1018.8 hPa 0.6 m/s 0.4 mm
20:00 20.4° 1019.0 hPa 0.2 m/s 1.3 mm
 06:19     19:48    Daglengte: 13:29 Dinsdag 30 Aug
02:00 17.1° 1020.0 hPa 0.5 m/s 1.4 mm
08:00 17.9° 1019.8 hPa 0.3 m/s 0.5 mm
14:00 25.6° 1018.1 hPa 0.7 m/s 0.4 mm
20:00 20.4° 1018.0 hPa 0.4 m/s 0.8 mm
 06:21     19:46    Daglengte: 13:25 Woensdag 31 Aug
02:00 16.8° 1019.0 hPa 0.3 m/s 0.1 mm
08:00 17.4° 1019.0 hPa 0.2 m/s 0.5 mm
14:00 25.3° 1017.2 hPa 0.7 m/s 0.7 mm
20:00 19.6° 1017.2 hPa 0.1 m/s 1.2 mm
 06:22     19:44    Daglengte: 13:22 Donderdag 01 Sep
02:00 16.1° 1018.3 hPa 0.4 m/s 1.2 mm
08:00 16.6° 1018.6 hPa 0.5 m/s 0.7 mm
14:00 23.9° 1017.5 hPa 0.6 m/s 0.8 mm
20:00 18.6° 1017.9 hPa 0.1 m/s 0.7 mm
FMI Hirlam - 7.5 km EWN WRFDA - 12 km DWD ICON - 7 km GFS - 25 km Basiskaart






























































Updatetijd (Europe/Amsterdam) Resolutie Lengte Stap
FMI Hirlam 19:15, 01:15, 07:15, 13:15 7.5 km 49h 1h
EWN WRFDA 22:30, 04:30, 10:30, 16:30 12 km 73h 1h
DWD ICON 23:45, 05:45, 11:45, 17:45 7 km 75h 1h
GFS 20:00, 02:00, 08:00, 14:00 25 km 237h 3h
30+ mm
25-30 mm
20-25 mm
15-20 mm
10-15 mm
6-10 mm
4-6 mm
2-4 mm
1-2 mm
0.5-1 mm
0.2-0.5 mm
0.1-0.2 mm
30+ mm
25-30 mm
20-25 mm
15-20 mm
10-15 mm
6-10 mm
4-6 mm
2-4 mm
1-2 mm
0.5-1 mm
0.2-0.5 mm
0.1-0.2 mm
Sneeuwval
Natte sneeuw
Hagel
Vorst
30+ mm
25-30 mm
20-25 mm
15-20 mm
10-15 mm
6-10 mm
4-6 mm
2-4 mm
1-2 mm
0.5-1 mm
0.2-0.5 mm
0.1-0.2 mm
Sneeuwval
Natte sneeuw
Hagel
Vorst
Onweer
50 mm
40 mm
30 mm
26 mm
22 mm
18 mm
14 mm
10 mm
9 mm
8 mm
7 mm
6 mm
5 mm
4.5 mm
4 mm
3.5 mm
3 mm
2.5 mm
2 mm
1.5 mm
1 mm
0.8 mm
0.6 mm
0.4 mm
0.2 mm
0.05 mm
35°
30°
25°
20°
15°
10°
-5°
-10°
-15°
-20°
-25°
-30°
-35°
33> m/s
29 m/s
25 m/s
21 m/s
17 m/s
14 m/s
11 m/s
8 m/s
5 m/s
3 m/s
0 m/s
2600 J/kg
2400 J/kg
2200 J/kg
2000 J/kg
1800 J/kg
1600 J/kg
1400 J/kg
1200 J/kg
1000 J/kg
800 J/kg
600 J/kg
400 J/kg
200 J/kg
70 dBZ
65 dBZ
60 dBZ
55 dBZ
50 dBZ
45 dBZ
40 dBZ
35 dBZ
30 dBZ
25 dBZ
20 dBZ
15 dBZ
10 dBZ
5 dBZ
-1 K
-2 K
-3 K
-4 K
-5 K
-6 K
-7 K
-8 K
-9 K
950 m²/s²
900 m²/s²
850 m²/s²
800 m²/s²
750 m²/s²
700 m²/s²
650 m²/s²
600 m²/s²
550 m²/s²
500 m²/s²
450 m²/s²
400 m²/s²
350 m²/s²
300 m²/s²
250 m²/s²
200 m²/s²
150 m²/s²
100 m²/s²
46 m/s
44 m/s
42 m/s
40 m/s
38 m/s
36 m/s
34 m/s
32 m/s
30 m/s
28 m/s
26 m/s
24 m/s
22 m/s
20 m/s
16 m/s
12 m/s
8 m/s
4 m/s
30 m/s
28 m/s
26 m/s
24 m/s
22 m/s
20 m/s
18 m/s
16 m/s
14 m/s
12 m/s
10 m/s
8 m/s
6 m/s
4 m/s
2 m/s
3.0
2.8
2.6
2.4
2.2
2.0
1.8
1.6
1.4
1.2
1.0
0.8
0.6
0.4
0.2
15
14
13
12
11
10
9
8
7
6
5
4
3
2
1
90%
80%
70%
60%
50%
40%
30%
20%
10%
42
40
38
36
34
32
30
28
26
24
22
20
18
16
14
12
90+ cm
80-90 cm
70-80 cm
60-70 cm
50-60 cm
40-50 cm
30-40 cm
20-30 cm
10-20 cm
1-10 cm
Sneeuwval
Natte sneeuw
Regen
>120 mm
115 mm
110 mm
105 mm
100 mm
95 mm
90 mm
85 mm
80 mm
75 mm
70 mm
65 mm
60 mm
55 mm
50 mm
45 mm
45 mm
40 mm
35 mm
30 mm
25 mm
20 mm
15 mm
10 mm
5 mm
0.1 mm
960 hPa
880 hPa
800 hPa
720 hPa
640 hPa
560 hPa
584 gpdm
568 gpdm